Flag for Germany Weather past 2 weeks in Bremerhaven, Bremen, Germany

Now
57 °F

Partly sunny.


Feels Like: 54 °F
Forecast: 48 / 56 °F
Wind: 13 mph from Southwest

Location: Nordholz

Current Time: Oct 24, 2014 at 2:14:01 PM

Latest Report: Oct 24, 2014 at 1:20 PM


Visibility: N/A

Pressure: 30.07 "Hg

Humidity: 67%

Dew point: 46 °F

Location of BremerhavenLocation

Historic Weather in Bremerhaven — Graph

°F

Bremerhaven temperature yesterday

Maximum temperature yesterday: 55 °F (at 2:20 PM)
Minimum temperature yesterday: 48 °F (at 5:20 AM)
Average temperature yesterday: 52 °F

Past Weeks' High & Low Weather Summary

 TemperatureHumidityPressure
High70 °F (Oct 19, 1:20 PM)100% (Oct 11, 8:48 AM)30.15 "Hg (Oct 11, 8:48 AM)
Low46 °F (Oct 11, 7:20 AM)56% (Oct 11, 4:20 PM)29.33 "Hg (Oct 21, 5:20 PM)
Average56 °F88%29.82 "Hg
* Reported Oct 9 12:20 PM — Oct 24 12:20 PM, Bremerhaven, Weather by CustomWeather, © 2014

Note: Actual official high and low records may vary slightly from our data, if they occured in-between our weather recording intervals... More about our weather records

Advertising

Bremerhaven weather history for previous 24 hours

 ConditionsComfort  
Time TempWeatherWind HumidityBarometerVisibility
12:20 PM
Oct 24
55 °FBroken clouds.15 mph72%30.09 "HgN/A
11:20 AM55 °FBroken clouds.14 mph72%30.09 "HgN/A
10:20 AM54 °FBroken clouds.12 mph77%30.09 "HgN/A
9:20 AM54 °FPartly sunny.13 mph77%30.09 "HgN/A
8:20 AM54 °FPassing clouds.12 mph82%30.09 "Hg6 mi
7:20 AM52 °FPassing clouds.12 mph88%30.09 "HgN/A
6:20 AM54 °FPassing clouds.10 mph82%30.09 "HgN/A
5:20 AM54 °FPassing clouds.10 mph82%30.09 "HgN/A
4:20 AM54 °FPassing clouds.9 mph88%30.09 "HgN/A
3:20 AM54 °FPassing clouds.9 mph88%30.09 "HgN/A
2:20 AM54 °FPassing clouds.9 mph88%30.12 "HgN/A
1:20 AM54 °FPassing clouds.8 mph88%30.12 "Hg4 mi
12:20 AM52 °FPassing clouds.9 mph88%30.12 "Hg5 mi
11:20 PM
Oct 23
52 °FPassing clouds.8 mph88%30.12 "Hg5 mi
10:20 PM54 °FPassing clouds.9 mph88%30.15 "Hg4 mi
9:20 PM52 °FLight rain. Passing clouds.9 mph94%30.12 "Hg4 mi
8:20 PM54 °FFog.9 mph88%30.12 "Hg3 mi
7:20 PM52 °FFog.9 mph94%30.12 "Hg3 mi
6:20 PM54 °FFog.8 mph88%30.12 "Hg3 mi
5:20 PM54 °FPartly sunny.9 mph88%30.12 "Hg4 mi
4:47 PM54 °FBroken clouds.9 mph88%30.12 "Hg4 mi
4:20 PM54 °FPartly sunny.9 mph88%30.12 "Hg5 mi
3:46 PM54 °FPartly sunny.8 mph88%30.12 "Hg5 mi
3:20 PM54 °FPartly sunny.10 mph88%30.15 "Hg5 mi
2:20 PM55 °FPartly sunny.10 mph82%30.12 "HgN/A
Weather by CustomWeather, © 2014

See weather overviewHow to use our weather pages